M I D A S
Marine Information and Data Acquisition System
Tripno 293 of the Zeeleeuw from 2002-07-05 05:22:39 to 2002-07-05 12:30:10
Back to CruiseResearch ActivitiesStationsMapUnderway DataData graphs

EquipmentUnitsComment
TimeDGPSUTC
LatitudeDGPSDM.mWGS84
LongitudeDGPSDM.mWGS84
TemperatureSBE03/SBE38deg celciusITS90
ConductivitySBE21S/mITS90
SalinitySBE21 Practical Salinity Units
ChlorophylAChelsea fluorimeterg/lCalibrated in Aceton
Missing or incorrect values are displayed as -999
Sea surface data collected by the RV Zeeleeuw from 2002-07-05 05:22:39 to 2002-07-05 12:30:10
                                                                                    Next 1000 lines
Time Latitude Longitude Temperature Conductivity Salinity ChlorophylA
2002-07-05 05:22:48 51°14.266 2°55.257 -999 -999 -999  
2002-07-05 05:22:54 51°14.275 2°55.241 -999 -999 -999  
2002-07-05 05:22:58 51°14.282 2°55.229 -999 -999 -999  
2002-07-05 05:23:03 51°14.289 2°55.215 -999 -999 -999  
2002-07-05 05:23:08 51°14.297 2°55.2 -999 -999 -999  
2002-07-05 05:23:13 51°14.304 2°55.184 -999 -999 -999  
2002-07-05 05:23:18 51°14.311 2°55.168 -999 -999 -999  
2002-07-05 05:23:23 51°14.318 2°55.151 -999 -999 -999  
2002-07-05 05:23:28 51°14.326 2°55.135 -999 -999 -999  
2002-07-05 05:23:33 51°14.334 2°55.118 -999 -999 -999  
2002-07-05 05:23:40 51°14.346 2°55.094 -999 -999 -999  
2002-07-05 05:23:45 51°14.354 2°55.076 -999 -999 -999  
2002-07-05 05:23:49 51°14.361 2°55.062 -999 -999 -999  
2002-07-05 05:23:54 51°14.371 2°55.043 -999 -999 -999  
2002-07-05 05:23:58 51°14.379 2°55.028 -999 -999 -999  
2002-07-05 05:24:03 51°14.389 2°55.01 -999 -999 -999  
2002-07-05 05:24:08 51°14.399 2°54.991 -999 -999 -999  
2002-07-05 05:24:15 51°14.414 2°54.964 -999 -999 -999  
2002-07-05 05:24:19 51°14.423 2°54.948 -999 -999 -999  
2002-07-05 05:24:24 51°14.432 2°54.927 -999 -999 -999  
2002-07-05 05:24:28 51°14.439 2°54.909 -999 -999 -999  
2002-07-05 05:24:33 51°14.445 2°54.885 -999 -999 -999  
2002-07-05 05:24:38 51°14.451 2°54.861 -999 -999 -999  
2002-07-05 05:24:44 51°14.455 2°54.831 -999 -999 -999  
2002-07-05 05:24:49 51°14.458 2°54.805 -999 -999 -999  
2002-07-05 05:24:54 51°14.46 2°54.78 -999 -999 -999  
2002-07-05 05:24:59 51°14.461 2°54.754 -999 -999 -999  
2002-07-05 05:25:03 51°14.461 2°54.733 -999 -999 -999  
2002-07-05 05:25:08 51°14.46 2°54.707 -999 -999 -999  
2002-07-05 05:25:13 51°14.458 2°54.681 -999 -999 -999  
2002-07-05 05:25:19 51°14.455 2°54.65 -999 -999 -999  
2002-07-05 05:25:23 51°14.451 2°54.63 -999 -999 -999  
2002-07-05 05:25:29 51°14.446 2°54.6 -999 -999 -999  
2002-07-05 05:25:33 51°14.442 2°54.579 -999 -999 -999  
2002-07-05 05:25:38 51°14.438 2°54.554 -999 -999 -999  
2002-07-05 05:25:43 51°14.434 2°54.528 -999 -999 -999  
2002-07-05 05:25:48 51°14.43 2°54.503 -999 -999 -999  
2002-07-05 05:25:53 51°14.426 2°54.478 -999 -999 -999  
2002-07-05 05:25:59 51°14.42 2°54.447 -999 -999 -999  
2002-07-05 05:26:04 51°14.415 2°54.423 -999 -999 -999  
2002-07-05 05:26:09 51°14.409 2°54.398 -999 -999 -999  
2002-07-05 05:26:13 51°14.405 2°54.378 -999 -999 -999  
2002-07-05 05:26:18 51°14.4 2°54.353 -999 -999 -999  
2002-07-05 05:26:23 51°14.395 2°54.328 -999 -999 -999  
2002-07-05 05:26:29 51°14.389 2°54.297 -999 -999 -999  
2002-07-05 05:26:33 51°14.386 2°54.277 -999 -999 -999  
2002-07-05 05:26:39 51°14.379 2°54.248 -999 -999 -999  
2002-07-05 05:26:43 51°14.373 2°54.229 -999 -999 -999  
2002-07-05 05:26:48 51°14.365 2°54.206 -999 -999 -999  
2002-07-05 05:26:53 51°14.356 2°54.184 -999 -999 -999  
2002-07-05 05:26:59 51°14.346 2°54.157 -999 -999 -999  
2002-07-05 05:27:03 51°14.34 2°54.139 -999 -999 -999  
2002-07-05 05:27:08 51°14.333 2°54.116 -999 -999 -999  
2002-07-05 05:27:13 51°14.326 2°54.093 -999 -999 -999  
2002-07-05 05:27:19 51°14.317 2°54.064 -999 -999 -999  
2002-07-05 05:27:23 51°14.311 2°54.046 -999 -999 -999  
2002-07-05 05:27:28 51°14.304 2°54.023 -999 -999 -999  
2002-07-05 05:27:33 51°14.296 2°53.999 -999 -999 -999  
2002-07-05 05:27:38 51°14.288 2°53.976 -999 -999 -999  
2002-07-05 05:27:43 51°14.28 2°53.953 -999 -999 -999  
2002-07-05 05:27:48 51°14.272 2°53.93 -999 -999 -999  
2002-07-05 05:27:53 51°14.264 2°53.907 -999 -999 -999  
2002-07-05 05:27:58 51°14.256 2°53.884 -999 -999 -999  
2002-07-05 05:28:03 51°14.248 2°53.861 -999 -999 -999  
2002-07-05 05:28:08 51°14.241 2°53.838 -999 -999 -999  
2002-07-05 05:28:14 51°14.231 2°53.81 -999 -999 -999  
2002-07-05 05:28:18 51°14.225 2°53.792 -999 -999 -999  
2002-07-05 05:28:23 51°14.217 2°53.768 -999 -999 -999  
2002-07-05 05:28:28 51°14.209 2°53.745 -999 -999 -999  
2002-07-05 05:28:33 51°14.201 2°53.722 -999 -999 -999  
2002-07-05 05:28:38 51°14.194 2°53.698 -999 -999 -999  
2002-07-05 05:28:43 51°14.187 2°53.675 -999 -999 -999  
2002-07-05 05:28:48 51°14.179 2°53.652 -999 -999 -999  
2002-07-05 05:28:54 51°14.17 2°53.624 -999 -999 -999  
2002-07-05 05:28:58 51°14.164 2°53.605 -999 -999 -999  
2002-07-05 05:29:03 51°14.157 2°53.582 -999 -999 -999  
2002-07-05 05:29:08 51°14.149 2°53.558 -999 -999 -999  
2002-07-05 05:29:13 51°14.142 2°53.534 -999 -999 -999  
2002-07-05 05:29:18 51°14.134 2°53.511 -999 -999 -999  
2002-07-05 05:29:24 51°14.125 2°53.482 -999 -999 -999  
2002-07-05 05:29:29 51°14.118 2°53.458 -999 -999 -999  
2002-07-05 05:29:34 51°14.11 2°53.435 -999 -999 -999  
2002-07-05 05:29:38 51°14.105 2°53.416 -999 -999 -999  
2002-07-05 05:29:43 51°14.097 2°53.393 -999 -999 -999  
2002-07-05 05:29:48 51°14.09 2°53.369 -999 -999 -999  
2002-07-05 05:29:53 51°14.082 2°53.345 -999 -999 -999  
2002-07-05 05:29:59 51°14.073 2°53.317 -999 -999 -999  
2002-07-05 05:30:03 51°14.068 2°53.298 -999 -999 -999  
2002-07-05 05:30:08 51°14.06 2°53.274 -999 -999 -999  
2002-07-05 05:30:13 51°14.053 2°53.251 -999 -999 -999  
2002-07-05 05:30:18 51°14.046 2°53.227 -999 -999 -999  
2002-07-05 05:30:23 51°14.038 2°53.204 -999 -999 -999  
2002-07-05 05:30:28 51°14.03 2°53.18 -999 -999 -999  
2002-07-05 05:30:33 51°14.022 2°53.156 -999 -999 -999  
2002-07-05 05:30:39 51°14.013 2°53.126 -999 -999 -999  
2002-07-05 05:30:43 51°14.007 2°53.106 -999 -999 -999  
2002-07-05 05:30:49 51°13.997 2°53.076 -999 -999 -999  
2002-07-05 05:30:53 51°13.991 2°53.055 -999 -999 -999  
2002-07-05 05:30:58 51°13.983 2°53.029 -999 -999 -999  
2002-07-05 05:31:03 51°13.976 2°53.003 -999 -999 -999  
2002-07-05 05:31:08 51°13.968 2°52.976 -999 -999 -999  
2002-07-05 05:31:14 51°13.958 2°52.944 -999 -999 -999  
2002-07-05 05:31:18 51°13.952 2°52.923 -999 -999 -999  
2002-07-05 05:31:23 51°13.943 2°52.896 -999 -999 -999  
2002-07-05 05:31:28 51°13.935 2°52.869 -999 -999 -999  
2002-07-05 05:31:33 51°13.926 2°52.843 -999 -999 -999  
2002-07-05 05:31:38 51°13.917 2°52.817 -999 -999 -999  
2002-07-05 05:31:44 51°13.907 2°52.785 -999 -999 -999  
2002-07-05 05:31:48 51°13.899 2°52.764 -999 -999 -999  
2002-07-05 05:31:53 51°13.891 2°52.737 -999 -999 -999  
2002-07-05 05:31:59 51°13.88 2°52.706 -999 -999 -999  
2002-07-05 05:32:03 51°13.873 2°52.685 -999 -999 -999  
2002-07-05 05:32:08 51°13.864 2°52.659 -999 -999 -999  
2002-07-05 05:32:13 51°13.855 2°52.632 -999 -999 -999  
2002-07-05 05:32:18 51°13.846 2°52.605 -999 -999 -999  
2002-07-05 05:32:23 51°13.838 2°52.579 -999 -999 -999  
2002-07-05 05:32:28 51°13.829 2°52.553 -999 -999 -999  
2002-07-05 05:32:33 51°13.82 2°52.526 -999 -999 -999  
2002-07-05 05:32:38 51°13.812 2°52.499 -999 -999 -999  
2002-07-05 05:32:43 51°13.803 2°52.473 -999 -999 -999  
2002-07-05 05:32:48 51°13.794 2°52.446 -999 -999 -999  
2002-07-05 05:32:53 51°13.785 2°52.419 -999 -999 -999  
2002-07-05 05:32:59 51°13.775 2°52.387 -999 -999 -999  
2002-07-05 05:33:03 51°13.767 2°52.366 -999 -999 -999  
2002-07-05 05:33:08 51°13.759 2°52.339 -999 -999 -999  
2002-07-05 05:33:13 51°13.75 2°52.313 -999 -999 -999  
2002-07-05 05:33:18 51°13.741 2°52.287 -999 -999 -999  
2002-07-05 05:33:23 51°13.732 2°52.26 -999 -999 -999  
2002-07-05 05:33:28 51°13.723 2°52.234 -999 -999 -999  
2002-07-05 05:33:33 51°13.714 2°52.207 -999 -999 -999  
2002-07-05 05:33:39 51°13.704 2°52.175 -999 -999 -999  
2002-07-05 05:33:43 51°13.696 2°52.155 -999 -999 -999  
2002-07-05 05:33:48 51°13.688 2°52.128 -999 -999 -999  
2002-07-05 05:33:54 51°13.677 2°52.096 -999 -999 -999  
2002-07-05 05:33:58 51°13.67 2°52.075 -999 -999 -999  
2002-07-05 05:34:03 51°13.661 2°52.049 -999 -999 -999  
2002-07-05 05:34:08 51°13.652 2°52.022 -999 -999 -999  
2002-07-05 05:34:14 51°13.642 2°51.99 -999 -999 -999  
2002-07-05 05:34:18 51°13.635 2°51.969 -999 -999 -999  
2002-07-05 05:34:23 51°13.626 2°51.943 -999 -999 -999  
2002-07-05 05:34:28 51°13.617 2°51.916 -999 -999 -999  
2002-07-05 05:34:33 51°13.608 2°51.89 -999 -999 -999  
2002-07-05 05:34:39 51°13.597 2°51.858 -999 -999 -999  
2002-07-05 05:34:43 51°13.59 2°51.837 -999 -999 -999  
2002-07-05 05:34:49 51°13.579 2°51.806 -999 -999 -999  
2002-07-05 05:34:53 51°13.571 2°51.785 -999 -999 -999  
2002-07-05 05:34:59 51°13.56 2°51.753 -999 -999 -999  
2002-07-05 05:35:03 51°13.553 2°51.732 -999 -999 -999  
2002-07-05 05:35:09 51°13.542 2°51.701 -999 -999 -999  
2002-07-05 05:35:13 51°13.535 2°51.68 -999 -999 -999  
2002-07-05 05:35:18 51°13.525 2°51.654 -999 -999 -999  
2002-07-05 05:35:23 51°13.516 2°51.627 -999 -999 -999  
2002-07-05 05:35:28 51°13.507 2°51.601 -999 -999 -999  
2002-07-05 05:35:33 51°13.498 2°51.574 -999 -999 -999  
2002-07-05 05:35:38 51°13.489 2°51.548 -999 -999 -999  
2002-07-05 05:35:43 51°13.48 2°51.522 -999 -999 -999  
2002-07-05 05:35:48 51°13.471 2°51.495 -999 -999 -999  
2002-07-05 05:35:54 51°13.46 2°51.464 -999 -999 -999  
2002-07-05 05:35:59 51°13.451 2°51.437 -999 -999 -999  
2002-07-05 05:36:03 51°13.443 2°51.416 -999 -999 -999  
2002-07-05 05:36:08 51°13.434 2°51.39 -999 -999 -999  
2002-07-05 05:36:13 51°13.425 2°51.363 -999 -999 -999  
2002-07-05 05:36:18 51°13.416 2°51.337 -999 -999 -999  
2002-07-05 05:36:24 51°13.405 2°51.306 -999 -999 -999  
2002-07-05 05:36:28 51°13.398 2°51.285 -999 -999 -999  
2002-07-05 05:36:33 51°13.389 2°51.259 -999 -999 -999  
2002-07-05 05:36:38 51°13.381 2°51.232 -999 -999 -999  
2002-07-05 05:36:43 51°13.37 2°51.206 -999 -999 -999  
2002-07-05 05:36:48 51°13.361 2°51.179 -999 -999 -999  
2002-07-05 05:36:53 51°13.352 2°51.153 -999 -999 -999  
2002-07-05 05:36:59 51°13.341 2°51.122 -999 -999 -999  
2002-07-05 05:37:03 51°13.334 2°51.1 -999 -999 -999  
2002-07-05 05:37:08 51°13.325 2°51.074 -999 -999 -999  
2002-07-05 05:37:13 51°13.316 2°51.047 -999 -999 -999  
2002-07-05 05:37:18 51°13.307 2°51.021 -999 -999 -999  
2002-07-05 05:37:24 51°13.296 2°50.989 -999 -999 -999  
2002-07-05 05:37:28 51°13.289 2°50.968 -999 -999 -999  
2002-07-05 05:37:34 51°13.279 2°50.937 -999 -999 -999  
2002-07-05 05:37:38 51°13.272 2°50.915 -999 -999 -999  
2002-07-05 05:37:44 51°13.261 2°50.884 -999 -999 -999  
2002-07-05 05:37:48 51°13.254 2°50.862 -999 -999 -999  
2002-07-05 05:37:53 51°13.244 2°50.836 -999 -999 -999  
2002-07-05 05:37:58 51°13.236 2°50.81 -999 -999 -999  
2002-07-05 05:38:03 51°13.226 2°50.784 -999 -999 -999  
2002-07-05 05:38:08 51°13.217 2°50.757 -999 -999 -999  
2002-07-05 05:38:14 51°13.206 2°50.726 -999 -999 -999  
2002-07-05 05:38:18 51°13.199 2°50.705 -999 -999 -999  
2002-07-05 05:38:23 51°13.191 2°50.679 -999 -999 -999  
2002-07-05 05:38:28 51°13.181 2°50.653 -999 -999 -999  
2002-07-05 05:38:33 51°13.172 2°50.626 -999 -999 -999  
2002-07-05 05:38:39 51°13.162 2°50.595 -999 -999 -999  
2002-07-05 05:38:44 51°13.152 2°50.569 -999 -999 -999  
2002-07-05 05:38:49 51°13.143 2°50.543 -999 -999 -999  
2002-07-05 05:38:53 51°13.136 2°50.522 -999 -999 -999  
2002-07-05 05:38:59 51°13.126 2°50.49 -999 -999 -999  
2002-07-05 05:39:03 51°13.118 2°50.469 -999 -999 -999  
2002-07-05 05:39:08 51°13.109 2°50.443 -999 -999 -999  
2002-07-05 05:39:13 51°13.1 2°50.417 -999 -999 -999  
2002-07-05 05:39:18 51°13.091 2°50.391 -999 -999 -999  
2002-07-05 05:39:23 51°13.082 2°50.365 -999 -999 -999  
2002-07-05 05:39:28 51°13.073 2°50.339 -999 -999 -999  
2002-07-05 05:39:33 51°13.064 2°50.313 -999 -999 -999  
2002-07-05 05:39:38 51°13.055 2°50.287 -999 -999 -999  
2002-07-05 05:39:43 51°13.046 2°50.261 -999 -999 -999  
2002-07-05 05:39:48 51°13.037 2°50.235 -999 -999 -999  
2002-07-05 05:39:54 51°13.026 2°50.204 -999 -999 -999  
2002-07-05 05:39:59 51°13.018 2°50.178 -999 -999 -999  
2002-07-05 05:40:04 51°13.009 2°50.152 -999 -999 -999  
2002-07-05 05:40:08 51°13.002 2°50.131 -999 -999 -999  
2002-07-05 05:40:13 51°12.993 2°50.105 -999 -999 -999  
2002-07-05 05:40:18 51°12.984 2°50.079 -999 -999 -999  
2002-07-05 05:40:24 51°12.974 2°50.047 -999 -999 -999  
2002-07-05 05:40:29 51°12.965 2°50.021 -999 -999 -999  
2002-07-05 05:40:34 51°12.956 2°49.995 -999 -999 -999  
2002-07-05 05:40:39 51°12.948 2°49.968 -999 -999 -999  
2002-07-05 05:40:43 51°12.94 2°49.948 -999 -999 -999  
2002-07-05 05:40:48 51°12.932 2°49.922 -999 -999 -999  
2002-07-05 05:40:53 51°12.923 2°49.896 -999 -999 -999  
2002-07-05 05:40:59 51°12.912 2°49.865 -999 -999 -999  
2002-07-05 05:41:03 51°12.905 2°49.844 -999 -999 -999  
2002-07-05 05:41:09 51°12.894 2°49.813 -999 -999 -999  
2002-07-05 05:41:13 51°12.887 2°49.792 -999 -999 -999  
2002-07-05 05:41:18 51°12.877 2°49.766 -999 -999 -999  
2002-07-05 05:41:23 51°12.868 2°49.74 -999 -999 -999  
2002-07-05 05:41:28 51°12.86 2°49.714 -999 -999 -999  
2002-07-05 05:41:33 51°12.85 2°49.688 -999 -999 -999  
2002-07-05 05:41:39 51°12.84 2°49.657 -999 -999 -999  
2002-07-05 05:41:44 51°12.83 2°49.631 -999 -999 -999  
2002-07-05 05:41:49 51°12.821 2°49.605 -999 -999 -999  
2002-07-05 05:41:54 51°12.812 2°49.579 -999 -999 -999  
2002-07-05 05:41:58 51°12.804 2°49.558 -999 -999 -999  
2002-07-05 05:42:03 51°12.796 2°49.532 -999 -999 -999  
2002-07-05 05:42:08 51°12.787 2°49.506 -999 -999 -999  
2002-07-05 05:42:13 51°12.779 2°49.48 -999 -999 -999  
2002-07-05 05:42:19 51°12.768 2°49.448 -999 -999 -999  
2002-07-05 05:42:24 51°12.759 2°49.422 -999 -999 -999  
2002-07-05 05:42:28 51°12.752 2°49.401 -999 -999 -999  
2002-07-05 05:42:33 51°12.742 2°49.376 -999 -999 -999  
2002-07-05 05:42:39 51°12.732 2°49.345 -999 -999 -999  
2002-07-05 05:42:44 51°12.722 2°49.319 -999 -999 -999  
2002-07-05 05:42:49 51°12.714 2°49.293 -999 -999 -999  
2002-07-05 05:42:54 51°12.704 2°49.267 -999 -999 -999  
2002-07-05 05:42:59 51°12.696 2°49.241 -999 -999 -999  
2002-07-05 05:43:03 51°12.688 2°49.22 -999 -999 -999  
2002-07-05 05:43:08 51°12.68 2°49.194 -999 -999 -999  
2002-07-05 05:43:13 51°12.67 2°49.168 -999 -999 -999  
2002-07-05 05:43:19 51°12.66 2°49.136 -999 -999 -999  
2002-07-05 05:43:24 51°12.651 2°49.11 -999 -999 -999  
2002-07-05 05:43:28 51°12.644 2°49.089 -999 -999 -999  
2002-07-05 05:43:33 51°12.636 2°49.063 -999 -999 -999  
2002-07-05 05:43:38 51°12.627 2°49.037 -999 -999 -999  
2002-07-05 05:43:44 51°12.616 2°49.006 -999 -999 -999  
2002-07-05 05:43:48 51°12.609 2°48.986 -999 -999 -999  
2002-07-05 05:43:54 51°12.598 2°48.954 -999 -999 -999  
2002-07-05 05:43:59 51°12.589 2°48.928 -999 -999 -999  
2002-07-05 05:44:03 51°12.582 2°48.908 -999 -999 -999  
2002-07-05 05:44:08 51°12.573 2°48.881 -999 -999 -999  
2002-07-05 05:44:13 51°12.565 2°48.855 -999 -999 -999  
2002-07-05 05:44:19 51°12.554 2°48.823 -999 -999 -999  
2002-07-05 05:44:23 51°12.547 2°48.802 -999 -999 -999  
2002-07-05 05:44:28 51°12.539 2°48.776 -999 -999 -999  
2002-07-05 05:44:33 51°12.53 2°48.75 -999 -999 -999  
2002-07-05 05:44:39 51°12.519 2°48.719 -999 -999 -999  
2002-07-05 05:44:44 51°12.509 2°48.693 -999 -999 -999  
2002-07-05 05:44:48 51°12.502 2°48.673 -999 -999 -999  
2002-07-05 05:44:53 51°12.492 2°48.647 -999 -999 -999  
2002-07-05 05:44:58 51°12.483 2°48.621 -999 -999 -999  
2002-07-05 05:45:03 51°12.474 2°48.596 -999 -999 -999  
2002-07-05 05:45:09 51°12.463 2°48.565 -999 -999 -999  
2002-07-05 05:45:14 51°12.454 2°48.539 -999 -999 -999  
2002-07-05 05:45:18 51°12.447 2°48.518 -999 -999 -999  
2002-07-05 05:45:24 51°12.437 2°48.486 -999 -999 -999  
2002-07-05 05:45:28 51°12.43 2°48.465 -999 -999 -999  
2002-07-05 05:45:34 51°12.419 2°48.435 -999 -999 -999  
2002-07-05 05:45:39 51°12.41 2°48.408 -999 -999 -999  
2002-07-05 05:45:43 51°12.403 2°48.388 -999 -999 -999  
2002-07-05 05:45:49 51°12.393 2°48.357 -999 -999 -999  
2002-07-05 05:45:54 51°12.385 2°48.33 -999 -999 -999  
2002-07-05 05:45:58 51°12.378 2°48.309 -999 -999 -999  
2002-07-05 05:46:03 51°12.369 2°48.283 -999 -999 -999  
2002-07-05 05:46:08 51°12.36 2°48.257 -999 -999 -999  
2002-07-05 05:46:13 51°12.351 2°48.231 -999 -999 -999  
2002-07-05 05:46:19 51°12.341 2°48.2 -999 -999 -999  
2002-07-05 05:46:24 51°12.332 2°48.174 -999 -999 -999  
2002-07-05 05:46:29 51°12.323 2°48.148 -999 -999 -999  
2002-07-05 05:46:33 51°12.316 2°48.128 -999 -999 -999  
2002-07-05 05:46:38 51°12.307 2°48.102 -999 -999 -999  
2002-07-05 05:46:43 51°12.298 2°48.076 -999 -999 -999  
2002-07-05 05:46:49 51°12.288 2°48.045 -999 -999 -999  
2002-07-05 05:46:54 51°12.278 2°48.02 -999 -999 -999  
2002-07-05 05:46:59 51°12.269 2°47.994 -999 -999 -999  
2002-07-05 05:47:04 51°12.26 2°47.968 -999 -999 -999  
2002-07-05 05:47:08 51°12.253 2°47.947 -999 -999 -999  
2002-07-05 05:47:13 51°12.244 2°47.921 -999 -999 -999  
2002-07-05 05:47:18 51°12.235 2°47.896 -999 -999 -999  
2002-07-05 05:47:24 51°12.225 2°47.864 -999 -999 -999  
2002-07-05 05:47:29 51°12.216 2°47.838 -999 -999 -999  
2002-07-05 05:47:34 51°12.207 2°47.813 -999 -999 -999  
2002-07-05 05:47:38 51°12.2 2°47.792 -999 -999 -999  
2002-07-05 05:47:43 51°12.191 2°47.766 -999 -999 -999  
2002-07-05 05:47:48 51°12.182 2°47.741 -999 -999 -999  
2002-07-05 05:47:53 51°12.173 2°47.714 -999 -999 -999  
2002-07-05 05:47:58 51°12.164 2°47.689 -999 -999 -999  
2002-07-05 05:48:04 51°12.154 2°47.658 -999 -999 -999  
2002-07-05 05:48:08 51°12.146 2°47.638 -999 -999 -999  
2002-07-05 05:48:14 51°12.136 2°47.607 -999 -999 -999  
2002-07-05 05:48:18 51°12.128 2°47.587 -999 -999 -999  
2002-07-05 05:48:23 51°12.119 2°47.561 -999 -999 -999  
2002-07-05 05:48:29 51°12.108 2°47.531 -999 -999 -999  
2002-07-05 05:48:34 51°12.099 2°47.505 -999 -999 -999  
2002-07-05 05:48:39 51°12.089 2°47.48 -999 -999 -999  
2002-07-05 05:48:44 51°12.08 2°47.454 -999 -999 -999  
2002-07-05 05:48:49 51°12.071 2°47.429 -999 -999 -999  
2002-07-05 05:48:53 51°12.063 2°47.408 -999 -999 -999  
2002-07-05 05:48:59 51°12.053 2°47.377 -999 -999 -999  
2002-07-05 05:49:03 51°12.046 2°47.356 -999 -999 -999  
2002-07-05 05:49:08 51°12.037 2°47.33 -999 -999 -999  
2002-07-05 05:49:13 51°12.028 2°47.304 -999 -999 -999  
2002-07-05 05:49:19 51°12.018 2°47.273 -999 -999 -999  
2002-07-05 05:49:24 51°12.009 2°47.247 -999 -999 -999  
2002-07-05 05:49:28 51°12.002 2°47.226 -999 -999 -999  
2002-07-05 05:49:33 51°11.994 2°47.2 -999 -999 -999  
2002-07-05 05:49:39 51°11.984 2°47.168 -999 -999 -999  
2002-07-05 05:49:43 51°11.977 2°47.147 -999 -999 -999  
2002-07-05 05:49:48 51°11.969 2°47.121 -999 -999 -999  
2002-07-05 05:49:54 51°11.958 2°47.09 -999 -999 -999  
2002-07-05 05:49:58 51°11.952 2°47.069 -999 -999 -999  
2002-07-05 05:50:03 51°11.943 2°47.043 -999 -999 -999  
2002-07-05 05:50:08 51°11.934 2°47.017 -999 -999 -999  
2002-07-05 05:50:14 51°11.924 2°46.985 -999 -999 -999  
2002-07-05 05:50:18 51°11.918 2°46.964 -999 -999 -999  
2002-07-05 05:50:24 51°11.908 2°46.933 -999 -999 -999  
2002-07-05 05:50:28 51°11.901 2°46.912 -999 -999 -999  
2002-07-05 05:50:33 51°11.893 2°46.886 -999 -999 -999  
2002-07-05 05:50:38 51°11.884 2°46.859 -999 -999 -999  
2002-07-05 05:50:43 51°11.876 2°46.833 -999 -999 -999  
2002-07-05 05:50:48 51°11.868 2°46.806 -999 -999 -999  
2002-07-05 05:50:53 51°11.861 2°46.78 -999 -999 -999  
2002-07-05 05:50:59 51°11.851 2°46.748 -999 -999 -999  
2002-07-05 05:51:04 51°11.843 2°46.721 -999 -999 -999  
2002-07-05 05:51:08 51°11.836 2°46.7 -999 -999 -999  
2002-07-05 05:51:13 51°11.828 2°46.673 -999 -999 -999  
2002-07-05 05:51:18 51°11.82 2°46.647 -999 -999 -999  
2002-07-05 05:51:24 51°11.811 2°46.615 -999 -999 -999  
2002-07-05 05:51:28 51°11.804 2°46.594 -999 -999 -999  
2002-07-05 05:51:33 51°11.796 2°46.568 -999 -999 -999  
2002-07-05 05:51:39 51°11.786 2°46.536 -999 -999 -999  
2002-07-05 05:51:44 51°11.778 2°46.51 -999 -999 -999  
2002-07-05 05:51:48 51°11.772 2°46.488 -999 -999 -999  
2002-07-05 05:51:53 51°11.765 2°46.462 -999 -999 -999  
2002-07-05 05:51:58 51°11.757 2°46.435 -999 -999 -999  
2002-07-05 05:52:03 51°11.75 2°46.407 -999 -999 -999  
2002-07-05 05:52:09 51°11.741 2°46.375 -999 -999 -999  
2002-07-05 05:52:14 51°11.733 2°46.348 -999 -999 -999  
2002-07-05 05:52:19 51°11.726 2°46.321 -999 -999 -999  
2002-07-05 05:52:23 51°11.72 2°46.3 -999 -999 -999  
2002-07-05 05:52:28 51°11.713 2°46.273 -999 -999 -999  
2002-07-05 05:52:33 51°11.705 2°46.246 -999 -999 -999  
2002-07-05 05:52:39 51°11.697 2°46.214 -999 -999 -999  
2002-07-05 05:52:44 51°11.689 2°46.187 -999 -999 -999  
2002-07-05 05:52:49 51°11.682 2°46.16 -999 -999 -999  
2002-07-05 05:52:54 51°11.675 2°46.133 -999 -999 -999  
2002-07-05 05:52:59 51°11.667 2°46.106 -999 -999 -999  
2002-07-05 05:53:04 51°11.661 2°46.079 -999 -999 -999  
2002-07-05 05:53:09 51°11.653 2°46.052 -999 -999 -999  
2002-07-05 05:53:14 51°11.646 2°46.025 -999 -999 -999  
2002-07-05 05:53:18 51°11.64 2°46.004 -999 -999 -999  
2002-07-05 05:53:23 51°11.633 2°45.977 -999 -999 -999  
2002-07-05 05:53:28 51°11.625 2°45.95 -999 -999 -999  
2002-07-05 05:53:34 51°11.616 2°45.918 -999 -999 -999  
2002-07-05 05:53:39 51°11.609 2°45.89 -999 -999 -999  
2002-07-05 05:53:43 51°11.603 2°45.869 -999 -999 -999  
2002-07-05 05:53:49 51°11.594 2°45.836 -999 -999 -999  
2002-07-05 05:53:53 51°11.588 2°45.815 -999 -999 -999  
2002-07-05 05:53:58 51°11.581 2°45.788 -999 -999 -999  
2002-07-05 05:54:03 51°11.574 2°45.761 -999 -999 -999  
2002-07-05 05:54:08 51°11.566 2°45.734 -999 -999 -999  
2002-07-05 05:54:14 51°11.558 2°45.701 -999 -999 -999  
2002-07-05 05:54:18 51°11.553 2°45.679 -999 -999 -999  
2002-07-05 05:54:23 51°11.545 2°45.653 -999 -999 -999  
2002-07-05 05:54:28 51°11.538 2°45.626 -999 -999 -999  
2002-07-05 05:54:34 51°11.529 2°45.593 -999 -999 -999  
2002-07-05 05:54:38 51°11.523 2°45.571 -999 -999 -999  
2002-07-05 05:54:43 51°11.516 2°45.545 -999 -999 -999  
2002-07-05 05:54:49 51°11.507 2°45.512 -999 -999 -999  
2002-07-05 05:54:54 51°11.5 2°45.485 -999 -999 -999  
2002-07-05 05:54:59 51°11.493 2°45.458 -999 -999 -999  
2002-07-05 05:55:03 51°11.487 2°45.436 -999 -999 -999  
2002-07-05 05:55:09 51°11.479 2°45.404 -999 -999 -999  
2002-07-05 05:55:13 51°11.473 2°45.383 -999 -999 -999  
2002-07-05 05:55:19 51°11.464 2°45.35 -999 -999 -999  
2002-07-05 05:55:23 51°11.458 2°45.329 -999 -999 -999  
2002-07-05 05:55:28 51°11.451 2°45.302 -999 -999 -999  
2002-07-05 05:55:34 51°11.442 2°45.27 -999 -999 -999  
2002-07-05 05:55:39 51°11.435 2°45.243 -999 -999 -999  
2002-07-05 05:55:43 51°11.429 2°45.221 -999 -999 -999  
2002-07-05 05:55:48 51°11.421 2°45.195 -999 -999 -999  
2002-07-05 05:55:53 51°11.414 2°45.168 -999 -999 -999  
2002-07-05 05:55:58 51°11.407 2°45.141 -999 -999 -999  
2002-07-05 05:56:03 51°11.4 2°45.114 -999 -999 -999  
2002-07-05 05:56:08 51°11.393 2°45.087 -999 -999 -999  
2002-07-05 05:56:13 51°11.385 2°45.06 -999 -999 -999  
2002-07-05 05:56:19 51°11.376 2°45.028 -999 -999 -999  
2002-07-05 05:56:24 51°11.369 2°45.001 -999 -999 -999  
2002-07-05 05:56:28 51°11.363 2°44.979 -999 -999 -999  
2002-07-05 05:56:33 51°11.356 2°44.953 -999 -999 -999  
2002-07-05 05:56:39 51°11.347 2°44.921 -999 -999 -999  
2002-07-05 05:56:43 51°11.341 2°44.899 -999 -999 -999  
2002-07-05 05:56:49 51°11.333 2°44.867 -999 -999 -999  
2002-07-05 05:56:54 51°11.325 2°44.84 -999 -999 -999  
2002-07-05 05:56:58 51°11.32 2°44.818 -999 -999 -999  
2002-07-05 05:57:03 51°11.313 2°44.791 -999 -999 -999  
2002-07-05 05:57:09 51°11.305 2°44.759 -999 -999 -999  
2002-07-05 05:57:13 51°11.299 2°44.737 -999 -999 -999  
2002-07-05 05:57:19 51°11.291 2°44.705 -999 -999 -999  
2002-07-05 05:57:24 51°11.284 2°44.677 -999 -999 -999  
2002-07-05 05:57:28 51°11.279 2°44.656 -999 -999 -999  
2002-07-05 05:57:33 51°11.272 2°44.629 -999 -999 -999  
2002-07-05 05:57:39 51°11.264 2°44.596 -999 -999 -999  
2002-07-05 05:57:43 51°11.259 2°44.574 -999 -999 -999  
2002-07-05 05:57:49 51°11.251 2°44.541 -999 -999 -999  
2002-07-05 05:57:53 51°11.245 2°44.52 -999 -999 -999  
2002-07-05 05:57:59 51°11.238 2°44.487 -999 -999 -999  
2002-07-05 05:58:03 51°11.232 2°44.465 -999 -999 -999  
2002-07-05 05:58:08 51°11.226 2°44.438 -999 -999 -999  
2002-07-05 05:58:14 51°11.218 2°44.405 -999 -999 -999  
2002-07-05 05:58:18 51°11.213 2°44.383 -999 -999 -999  
2002-07-05 05:58:24 51°11.205 2°44.351 -999 -999 -999  
2002-07-05 05:58:28 51°11.199 2°44.329 -999 -999 -999  
2002-07-05 05:58:33 51°11.193 2°44.302 -999 -999 -999  
2002-07-05 05:58:39 51°11.185 2°44.27 -999 -999 -999  
2002-07-05 05:58:43 51°11.18 2°44.248 -999 -999 -999  
2002-07-05 05:58:48 51°11.173 2°44.221 -999 -999 -999  
2002-07-05 05:58:54 51°11.166 2°44.188 -999 -999 -999  
2002-07-05 05:58:59 51°11.159 2°44.161 -999 -999 -999  
2002-07-05 05:59:03 51°11.154 2°44.139 -999 -999 -999  
2002-07-05 05:59:09 51°11.146 2°44.107 -999 -999 -999  
2002-07-05 05:59:13 51°11.141 2°44.085 -999 -999 -999  
2002-07-05 05:59:19 51°11.133 2°44.052 -999 -999 -999  
2002-07-05 05:59:23 51°11.128 2°44.031 -999 -999 -999  
2002-07-05 05:59:28 51°11.121 2°44.004 -999 -999 -999  
2002-07-05 05:59:34 51°11.112 2°43.972 -999 -999 -999  
2002-07-05 05:59:38 51°11.106 2°43.95 -999 -999 -999  
2002-07-05 05:59:44 51°11.099 2°43.918 -999 -999 -999  
2002-07-05 05:59:49 51°11.092 2°43.89 -999 -999 -999  
2002-07-05 05:59:53 51°11.087 2°43.869 -999 -999 -999  
2002-07-05 05:59:58 51°11.08 2°43.841 -999 -999 -999  
2002-07-05 06:00:03 51°11.074 2°43.814 -999 -999 -999  
2002-07-05 06:00:08 51°11.067 2°43.787 -999 -999 -999  
2002-07-05 06:00:14 51°11.059 2°43.755 -999 -999 -999  
2002-07-05 06:00:19 51°11.052 2°43.727 -999 -999 -999  
2002-07-05 06:00:24 51°11.046 2°43.7 -999 -999 -999  
2002-07-05 06:00:28 51°11.04 2°43.678 -999 -999 -999  
2002-07-05 06:00:33 51°11.034 2°43.652 -999 -999 -999  
2002-07-05 06:00:39 51°11.026 2°43.62 -999 -999 -999  
2002-07-05 06:00:44 51°11.019 2°43.593 -999 -999 -999  
2002-07-05 06:00:49 51°11.012 2°43.566 -999 -999 -999  
2002-07-05 06:00:54 51°11.005 2°43.539 -999 -999 -999  
2002-07-05 06:00:59 51°10.999 2°43.512 -999 -999 -999  
2002-07-05 06:01:03 51°10.994 2°43.491 -999 -999 -999  
2002-07-05 06:01:08 51°10.987 2°43.464 -999 -999 -999  
2002-07-05 06:01:14 51°10.979 2°43.432 -999 -999 -999  
2002-07-05 06:01:19 51°10.973 2°43.405 -999 -999 -999  
2002-07-05 06:01:23 51°10.968 2°43.383 -999 -999 -999  
2002-07-05 06:01:28 51°10.961 2°43.357 -999 -999 -999  
2002-07-05 06:01:33 51°10.954 2°43.33 -999 -999 -999  
2002-07-05 06:01:38 51°10.947 2°43.303 -999 -999 -999  
2002-07-05 06:01:43 51°10.941 2°43.276 -999 -999 -999  
2002-07-05 06:01:48 51°10.934 2°43.249 -999 -999 -999  
2002-07-05 06:01:53 51°10.927 2°43.222 -999 -999 -999  
2002-07-05 06:01:58 51°10.921 2°43.196 -999 -999 -999  
2002-07-05 06:02:03 51°10.914 2°43.169 -999 -999 -999  
2002-07-05 06:02:08 51°10.907 2°43.142 -999 -999 -999  
2002-07-05 06:02:13 51°10.901 2°43.115 -999 -999 -999  
2002-07-05 06:02:19 51°10.892 2°43.083 -999 -999 -999  
2002-07-05 06:02:24 51°10.886 2°43.056 -999 -999 -999  
2002-07-05 06:02:28 51°10.88 2°43.035 -999 -999 -999  
2002-07-05 06:02:33 51°10.873 2°43.008 -999 -999 -999  
2002-07-05 06:02:39 51°10.865 2°42.975 -999 -999 -999  
2002-07-05 06:02:43 51°10.86 2°42.954 -999 -999 -999  
2002-07-05 06:02:48 51°10.854 2°42.927 -999 -999 -999  
2002-07-05 06:02:54 51°10.846 2°42.895 -999 -999 -999  
2002-07-05 06:02:58 51°10.84 2°42.873 -999 -999 -999  
2002-07-05 06:03:03 51°10.834 2°42.846 -999 -999 -999  
2002-07-05 06:03:08 51°10.827 2°42.819 -999 -999 -999  
2002-07-05 06:03:14 51°10.819 2°42.787 -999 -999 -999  
2002-07-05 06:03:19 51°10.812 2°42.76 -999 -999 -999  
2002-07-05 06:03:23 51°10.807 2°42.739 -999 -999 -999  
2002-07-05 06:03:28 51°10.8 2°42.712 -999 -999 -999  
2002-07-05 06:03:33 51°10.794 2°42.685 -999 -999 -999  
2002-07-05 06:03:39 51°10.787 2°42.652 -999 -999 -999  
2002-07-05 06:03:43 51°10.782 2°42.63 -999 -999 -999  
2002-07-05 06:03:48 51°10.776 2°42.603 -999 -999 -999  
2002-07-05 06:03:53 51°10.771 2°42.576 -999 -999 -999  
2002-07-05 06:03:58 51°10.766 2°42.548 -999 -999 -999  
2002-07-05 06:04:03 51°10.76 2°42.521 -999 -999 -999  
2002-07-05 06:04:08 51°10.754 2°42.493 -999 -999 -999  
2002-07-05 06:04:13 51°10.748 2°42.466 -999 -999 -999  
2002-07-05 06:04:19 51°10.741 2°42.433 -999 -999 -999  
2002-07-05 06:04:24 51°10.735 2°42.406 -999 -999 -999  
2002-07-05 06:04:29 51°10.73 2°42.378 -999 -999 -999  
2002-07-05 06:04:33 51°10.725 2°42.356 -999 -999 -999  
2002-07-05 06:04:39 51°10.719 2°42.324 -999 -999 -999  
2002-07-05 06:04:43 51°10.714 2°42.302 -999 -999 -999  
2002-07-05 06:04:49 51°10.707 2°42.269 -999 -999 -999  
2002-07-05 06:04:53 51°10.703 2°42.247 -999 -999 -999  
2002-07-05 06:04:59 51°10.696 2°42.214 -999 -999 -999  
2002-07-05 06:05:03 51°10.691 2°42.192 -999 -999 -999  
2002-07-05 06:05:08 51°10.686 2°42.165 -999 -999 -999  
2002-07-05 06:05:13 51°10.68 2°42.137 -999 -999 -999  
2002-07-05 06:05:18 51°10.674 2°42.11 -999 -999 -999  
2002-07-05 06:05:23 51°10.668 2°42.083 -999 -999 -999  
2002-07-05 06:05:28 51°10.662 2°42.055 -999 -999 -999  
2002-07-05 06:05:34 51°10.656 2°42.023 -999 -999 -999  
2002-07-05 06:05:38 51°10.651 2°42.001 -999 -999 -999  
2002-07-05 06:05:43 51°10.646 2°41.973 -999 -999 -999  
2002-07-05 06:05:48 51°10.64 2°41.946 -999 -999 -999  
2002-07-05 06:05:53 51°10.634 2°41.919 -999 -999 -999  
2002-07-05 06:05:59 51°10.627 2°41.886 -999 -999 -999  
2002-07-05 06:06:03 51°10.622 2°41.864 -999 -999 -999  
2002-07-05 06:06:08 51°10.617 2°41.837 -999 -999 -999  
2002-07-05 06:06:13 51°10.611 2°41.81 -999 -999 -999  
2002-07-05 06:06:19 51°10.604 2°41.778 -999 -999 -999  
2002-07-05 06:06:23 51°10.599 2°41.756 -999 -999 -999  
2002-07-05 06:06:28 51°10.594 2°41.728 -999 -999 -999  
2002-07-05 06:06:33 51°10.588 2°41.701 -999 -999 -999  
2002-07-05 06:06:39 51°10.581 2°41.668 -999 -999 -999  
2002-07-05 06:06:43 51°10.577 2°41.646 -999 -999 -999  
2002-07-05 06:06:49 51°10.57 2°41.613 -999 -999 -999  
2002-07-05 06:06:53 51°10.566 2°41.591 -999 -999 -999  
2002-07-05 06:06:58 51°10.56 2°41.564 -999 -999 -999  
2002-07-05 06:07:03 51°10.554 2°41.537 -999 -999 -999  
2002-07-05 06:07:09 51°10.548 2°41.504 -999 -999 -999  
2002-07-05 06:07:14 51°10.542 2°41.477 -999 -999 -999  
2002-07-05 06:07:18 51°10.537 2°41.455 -999 -999 -999  
2002-07-05 06:07:23 51°10.532 2°41.428 -999 -999 -999  
2002-07-05 06:07:28 51°10.525 2°41.401 -999 -999 -999  
2002-07-05 06:07:33 51°10.52 2°41.373 -999 -999 -999  
2002-07-05 06:07:39 51°10.513 2°41.341 -999 -999 -999  
2002-07-05 06:07:43 51°10.508 2°41.319 -999 -999 -999  
2002-07-05 06:07:49 51°10.501 2°41.286 -999 -999 -999  
2002-07-05 06:07:54 51°10.495 2°41.259 -999 -999 -999  
2002-07-05 06:07:58 51°10.49 2°41.238 -999 -999 -999  
2002-07-05 06:08:03 51°10.484 2°41.211 -999 -999 -999  
2002-07-05 06:08:09 51°10.477 2°41.178 -999 -999 -999  
2002-07-05 06:08:13 51°10.473 2°41.156 -999 -999 -999  
2002-07-05 06:08:19 51°10.466 2°41.123 -999 -999 -999  
2002-07-05 06:08:23 51°10.461 2°41.101 -999 -999 -999  
2002-07-05 06:08:29 51°10.454 2°41.069 -999 -999 -999  
2002-07-05 06:08:33 51°10.45 2°41.046 -999 -999 -999  
2002-07-05 06:08:39 51°10.443 2°41.014 -999 -999 -999  
2002-07-05 06:08:42 51°10.44 2°40.997 -999 -999 -999  
2002-07-05 06:08:48 51°10.433 2°40.965 -999 -999 -999  
2002-07-05 06:08:53 51°10.427 2°40.937 -999 -999 -999  
2002-07-05 06:08:58 51°10.421 2°40.91 -999 -999 -999  
2002-07-05 06:09:03 51°10.415 2°40.883 -999 -999 -999  
2002-07-05 06:09:08 51°10.409 2°40.856 -999 -999 -999  
2002-07-05 06:09:13 51°10.404 2°40.828 -999 -999 -999  
2002-07-05 06:09:19 51°10.397 2°40.795 -999 -999 -999  
2002-07-05 06:09:23 51°10.393 2°40.773 -999 -999 -999  
2002-07-05 06:09:28 51°10.387 2°40.746 -999 -999 -999  
2002-07-05 06:09:33 51°10.382 2°40.719 -999 -999 -999  
2002-07-05 06:09:38 51°10.376 2°40.692 -999 -999 -999  
2002-07-05 06:09:43 51°10.371 2°40.665 -999 -999 -999  
2002-07-05 06:09:48 51°10.365 2°40.638 -999 -999 -999  
2002-07-05 06:09:53 51°10.359 2°40.611 -999 -999 -999  
2002-07-05 06:09:58 51°10.354 2°40.584 -999 -999 -999  
2002-07-05 06:10:03 51°10.348 2°40.557 -999 -999 -999  
2002-07-05 06:10:08 51°10.343 2°40.53 -999 -999 -999  
2002-07-05 06:10:14 51°10.336 2°40.497 -999 -999 -999  
2002-07-05 06:10:18 51°10.332 2°40.475 -999 -999 -999  
2002-07-05 06:10:23 51°10.326 2°40.448 -999 -999 -999  
2002-07-05 06:10:28 51°10.32 2°40.421 -999 -999 -999  
2002-07-05 06:10:34 51°10.313 2°40.389 -999 -999 -999  
2002-07-05 06:10:39 51°10.308 2°40.362 -999 -999 -999  
2002-07-05 06:10:43 51°10.302 2°40.341 -999 -999 -999  
2002-07-05 06:10:49 51°10.295 2°40.309 -999 -999 -999  
2002-07-05 06:10:53 51°10.29 2°40.288 -999 -999 -999  
2002-07-05 06:10:59 51°10.282 2°40.257 -999 -999 -999  
2002-07-05 06:11:03 51°10.276 2°40.235 -999 -999 -999  
2002-07-05 06:11:09 51°10.269 2°40.204 -999 -999 -999  
2002-07-05 06:11:13 51°10.263 2°40.183 -999 -999 -999  
2002-07-05 06:11:19 51°10.255 2°40.151 -999 -999 -999  
2002-07-05 06:11:23 51°10.25 2°40.13 -999 -999 -999  
2002-07-05 06:11:28 51°10.243 2°40.104 -999 -999 -999  
2002-07-05 06:11:34 51°10.235 2°40.072 -999 -999 -999  
2002-07-05 06:11:39 51°10.229 2°40.046 -999 -999 -999  
2002-07-05 06:11:43 51°10.223 2°40.025 -999 -999 -999  
2002-07-05 06:11:48 51°10.217 2°39.998 -999 -999 -999  
2002-07-05 06:11:53 51°10.21 2°39.971 -999 -999 -999  
2002-07-05 06:11:58 51°10.204 2°39.945 -999 -999 -999  
2002-07-05 06:12:03 51°10.197 2°39.918 -999 -999 -999  
2002-07-05 06:12:08 51°10.191 2°39.892 -999 -999 -999  
2002-07-05 06:12:13 51°10.185 2°39.865 -999 -999 -999  
2002-07-05 06:12:19 51°10.177 2°39.833 -999 -999 -999  
2002-07-05 06:12:23 51°10.172 2°39.812 -999 -999 -999  
2002-07-05 06:12:29 51°10.163 2°39.781 -999 -999 -999  
2002-07-05 06:12:33 51°10.158 2°39.76 -999 -999 -999  
2002-07-05 06:12:39 51°10.15 2°39.728 -999 -999 -999  
2002-07-05 06:12:43 51°10.145 2°39.707 -999 -999 -999  
2002-07-05 06:12:49 51°10.137 2°39.675 -999 -999 -999  
2002-07-05 06:12:53 51°10.132 2°39.654 -999 -999 -999  
2002-07-05 06:12:58 51°10.125 2°39.628 -999 -999 -999  
2002-07-05 06:13:03 51°10.118 2°39.601 -999 -999 -999  
2002-07-05 06:13:08 51°10.111 2°39.575 -999 -999 -999  
2002-07-05 06:13:13 51°10.104 2°39.549 -999 -999 -999  
2002-07-05 06:13:19 51°10.097 2°39.518 -999 -999 -999  
2002-07-05 06:13:23 51°10.091 2°39.497 -999 -999 -999  
2002-07-05 06:13:29 51°10.084 2°39.465 -999 -999 -999  
2002-07-05 06:13:33 51°10.078 2°39.444 -999 -999 -999  
2002-07-05 06:13:38 51°10.072 2°39.417 -999 -999 -999  
2002-07-05 06:13:43 51°10.065 2°39.39 -999 -999 -999  
2002-07-05 06:13:48 51°10.059 2°39.364 -999 -999 -999  
2002-07-05 06:13:53 51°10.052 2°39.338 -999 -999 -999  
2002-07-05 06:13:59 51°10.044 2°39.306 -999 -999 -999  
2002-07-05 06:14:03 51°10.038 2°39.285 -999 -999 -999  
2002-07-05 06:14:09 51°10.031 2°39.253 -999 -999 -999  
2002-07-05 06:14:13 51°10.025 2°39.232 -999 -999 -999  
2002-07-05 06:14:18 51°10.019 2°39.206 -999 -999 -999  
2002-07-05 06:14:23 51°10.012 2°39.179 -999 -999 -999  
2002-07-05 06:14:28 51°10.006 2°39.153 -999 -999 -999  
2002-07-05 06:14:33 51°9.999 2°39.126 -999 -999 -999  
2002-07-05 06:14:39 51°9.991 2°39.095 -999 -999 -999  
2002-07-05 06:14:43 51°9.985 2°39.073 -999 -999 -999  
2002-07-05 06:14:48 51°9.979 2°39.047 -999 -999 -999  
2002-07-05 06:14:54 51°9.971 2°39.015 -999 -999 -999  
2002-07-05 06:14:58 51°9.966 2°38.994 -999 -999 -999  
2002-07-05 06:15:03 51°9.959 2°38.967 -999 -999 -999  
2002-07-05 06:15:08 51°9.952 2°38.94 -999 -999 -999  
2002-07-05 06:15:14 51°9.944 2°38.909 -999 -999 -999  
2002-07-05 06:15:18 51°9.939 2°38.887 -999 -999 -999  
2002-07-05 06:15:24 51°9.931 2°38.856 -999 -999 -999  
2002-07-05 06:15:29 51°9.924 2°38.829 -999 -999 -999  
2002-07-05 06:15:33 51°9.919 2°38.808 -999 -999 -999  
2002-07-05 06:15:39 51°9.911 2°38.776 -999 -999 -999  
2002-07-05 06:15:42 51°9.907 2°38.76 -999 -999 -999  
2002-07-05 06:15:48 51°9.899 2°38.728 -999 -999 -999  
2002-07-05 06:15:53 51°9.893 2°38.702 -999 -999 -999  
2002-07-05 06:15:58 51°9.886 2°38.675 -999 -999 -999  
2002-07-05 06:16:03 51°9.879 2°38.649 -999 -999 -999  
2002-07-05 06:16:09 51°9.871 2°38.617 -999 -999 -999  
2002-07-05 06:16:13 51°9.866 2°38.596 -999 -999 -999  
2002-07-05 06:16:18 51°9.859 2°38.569 -999 -999 -999  
2002-07-05 06:16:23 51°9.853 2°38.543 -999 -999 -999  
2002-07-05 06:16:28 51°9.846 2°38.517 -999 -999 -999  
2002-07-05 06:16:34 51°9.838 2°38.485 -999 -999 -999  
2002-07-05 06:16:39 51°9.831 2°38.458 -999 -999 -999  
2002-07-05 06:16:43 51°9.826 2°38.437 -999 -999 -999  
2002-07-05 06:16:49 51°9.818 2°38.405 -999 -999 -999  
2002-07-05 06:16:53 51°9.813 2°38.383 -999 -999 -999  
2002-07-05 06:16:59 51°9.805 2°38.351 -999 -999 -999  
2002-07-05 06:17:03 51°9.8 2°38.33 -999 -999 -999  
2002-07-05 06:17:08 51°9.793 2°38.304 -999 -999 -999  
2002-07-05 06:17:13 51°9.786 2°38.277 -999 -999 -999  
2002-07-05 06:17:19 51°9.778 2°38.246 -999 -999 -999  
2002-07-05 06:17:23 51°9.772 2°38.225 -999 -999 -999  
2002-07-05 06:17:28 51°9.766 2°38.198 -999 -999 -999  
2002-07-05 06:17:34 51°9.758 2°38.166 -999 -999 -999  
2002-07-05 06:17:38 51°9.752 2°38.145 -999 -999 -999  
2002-07-05 06:17:43 51°9.745 2°38.118 -999 -999 -999  
2002-07-05 06:17:48 51°9.738 2°38.092 -999 -999 -999  
2002-07-05 06:17:53 51°9.731 2°38.066 -999 -999 -999  
2002-07-05 06:17:59 51°9.723 2°38.034 -999 -999 -999  
2002-07-05 06:18:03 51°9.717 2°38.013 -999 -999 -999  
2002-07-05 06:18:09 51°9.709 2°37.981 -999 -999 -999  
2002-07-05 06:18:13 51°9.703 2°37.96 -999 -999 -999  
2002-07-05 06:18:18 51°9.697 2°37.933 -999 -999 -999  
2002-07-05 06:18:23 51°9.69 2°37.907 -999 -999 -999  
2002-07-05 06:18:28 51°9.683 2°37.88 -999 -999 -999  
2002-07-05 06:18:33 51°9.676 2°37.854 -999 -999 -999  
2002-07-05 06:18:39 51°9.668 2°37.822 -999 -999 -999  
2002-07-05 06:18:43 51°9.663 2°37.801 -999 -999 -999  
2002-07-05 06:18:49 51°9.655 2°37.769 -999 -999 -999  
2002-07-05 06:18:53 51°9.649 2°37.748 -999 -999 -999  
2002-07-05 06:18:58 51°9.642 2°37.721 -999 -999 -999  
2002-07-05 06:19:03 51°9.635 2°37.695 -999 -999 -999  
2002-07-05 06:19:08 51°9.629 2°37.668 -999 -999 -999  
2002-07-05 06:19:13 51°9.622 2°37.642 -999 -999 -999  
2002-07-05 06:19:19 51°9.613 2°37.61 -999 -999 -999  
2002-07-05 06:19:23 51°9.608 2°37.589 -999 -999 -999  
2002-07-05 06:19:29 51°9.599 2°37.558 -999 -999 -999  
2002-07-05 06:19:33 51°9.594 2°37.537 -999 -999 -999  
2002-07-05 06:19:38 51°9.586 2°37.51 -999 -999 -999  
2002-07-05 06:19:43 51°9.58 2°37.484 -999 -999 -999  
2002-07-05 06:19:48 51°9.573 2°37.458 -999 -999 -999  
2002-07-05 06:19:53 51°9.566 2°37.431 -999 -999 -999  
2002-07-05 06:19:59 51°9.558 2°37.4 -999 -999 -999  
2002-07-05 06:20:03 51°9.553 2°37.379 -999 -999 -999  
2002-07-05 06:20:08 51°9.546 2°37.352 -999 -999 -999  
2002-07-05 06:20:14 51°9.538 2°37.32 -999 -999 -999  
2002-07-05 06:20:18 51°9.533 2°37.299 -999 -999 -999  
2002-07-05 06:20:23 51°9.525 2°37.273 -999 -999 -999  
2002-07-05 06:20:28 51°9.519 2°37.247 -999 -999 -999  
2002-07-05 06:20:34 51°9.51 2°37.215 -999 -999 -999  
2002-07-05 06:20:39 51°9.503 2°37.189 -999 -999 -999  
2002-07-05 06:20:43 51°9.497 2°37.168 -999 -999 -999  
2002-07-05 06:20:49 51°9.489 2°37.137 -999 -999 -999  
2002-07-05 06:20:53 51°9.483 2°37.116 -999 -999 -999  
2002-07-05 06:20:58 51°9.476 2°37.089 -999 -999 -999  
2002-07-05 06:21:03 51°9.47 2°37.063 -999 -999 -999  
2002-07-05 06:21:08 51°9.462 2°37.037 -999 -999 -999  
2002-07-05 06:21:14 51°9.454 2°37.005 -999 -999 -999  
2002-07-05 06:21:18 51°9.448 2°36.984 -999 -999 -999  
2002-07-05 06:21:23 51°9.441 2°36.957 -999 -999 -999  
2002-07-05 06:21:28 51°9.434 2°36.931 -999 -999 -999  
2002-07-05 06:21:33 51°9.427 2°36.905 -999 -999 -999  
2002-07-05 06:21:39 51°9.42 2°36.873 -999 -999 -999  
2002-07-05 06:21:43 51°9.414 2°36.854 -999 -999 -999  
2002-07-05 06:21:48 51°9.408 2°36.829 -999 -999 -999  
2002-07-05 06:21:53 51°9.402 2°36.804 -999 -999 -999  
2002-07-05 06:21:58 51°9.395 2°36.78 -999 -999 -999  
2002-07-05 06:22:03 51°9.389 2°36.757 -999 -999 -999  
2002-07-05 06:22:08 51°9.383 2°36.734 -999 -999 -999  
2002-07-05 06:22:13 51°9.377 2°36.71 -999 -999 -999  
2002-07-05 06:22:18 51°9.371 2°36.687 -999 -999 -999  
2002-07-05 06:22:24 51°9.364 2°36.66 -999 -999 -999  
2002-07-05 06:22:28 51°9.359 2°36.641 -999 -999 -999  
2002-07-05 06:22:33 51°9.353 2°36.618 -999 -999 -999  
2002-07-05 06:22:39 51°9.345 2°36.592 -999 -999 -999  
2002-07-05 06:22:44 51°9.34 2°36.57 -999 -999 -999  
2002-07-05 06:22:48 51°9.335 2°36.553 -999 -999 -999  
2002-07-05 06:22:54 51°9.328 2°36.529 -999 -999 -999  
2002-07-05 06:22:58 51°9.324 2°36.514 -999 -999 -999  
2002-07-05 06:23:03 51°9.32 2°36.495 -999 -999 -999  
2002-07-05 06:23:08 51°9.316 2°36.477 -999 -999 -999  
2002-07-05 06:23:13 51°9.313 2°36.459 -999 -999 -999  
2002-07-05 06:23:19 51°9.311 2°36.437 -999 -999 -999  
2002-07-05 06:23:23 51°9.31 2°36.423 -999 -999 -999  
2002-07-05 06:23:28 51°9.309 2°36.406 -999 -999 -999  
2002-07-05 06:23:34 51°9.309 2°36.387 -999 -999 -999  
2002-07-05 06:23:38 51°9.31 2°36.374 -999 -999 -999  
2002-07-05 06:23:43 51°9.31 2°36.36 -999 -999 -999  
2002-07-05 06:23:48 51°9.31 2°36.346 -999 -999 -999  
2002-07-05 06:23:53 51°9.31 2°36.332 -999 -999 -999  
2002-07-05 06:23:59 51°9.31 2°36.317 -999 -999 -999  
2002-07-05 06:24:04 51°9.31 2°36.305 -999 -999 -999  
2002-07-05 06:24:08 51°9.309 2°36.296 -999 -999 -999  
2002-07-05 06:24:13 51°9.309 2°36.286 -999 -999 -999  
2002-07-05 06:24:19 51°9.308 2°36.273 -999 -999 -999  
2002-07-05 06:24:23 51°9.308 2°36.266 -999 -999 -999  
2002-07-05 06:24:28 51°9.307 2°36.257 -999 -999 -999  
2002-07-05 06:24:33 51°9.306 2°36.248 -999 -999 -999  
2002-07-05 06:24:39 51°9.304 2°36.239 -999 -999 -999  
2002-07-05 06:24:43 51°9.303 2°36.234 -999 -999 -999  
2002-07-05 06:24:49 51°9.302 2°36.228 -999 -999 -999  
2002-07-05 06:24:53 51°9.302 2°36.225 -999 -999 -999  
2002-07-05 06:24:58 51°9.301 2°36.222 -999 -999 -999  
2002-07-05 06:25:03 51°9.3 2°36.219 -999 -999 -999  
2002-07-05 06:25:08 51°9.299 2°36.216 -999 -999 -999  
2002-07-05 06:25:13 51°9.298 2°36.213 -999 -999 -999  
2002-07-05 06:25:19 51°9.297 2°36.21 -999 -999 -999  
2002-07-05 06:25:24 51°9.296 2°36.208 -999 -999 -999  
2002-07-05 06:25:28 51°9.295 2°36.207 -999 -999 -999  
2002-07-05 06:25:33 51°9.294 2°36.205 -999 -999 -999  
2002-07-05 06:25:38 51°9.292 2°36.203 -999 -999 -999  
2002-07-05 06:25:43 51°9.291 2°36.201 -999 -999 -999  
2002-07-05 06:25:48 51°9.29 2°36.2 -999 -999 -999  
2002-07-05 06:25:54 51°9.289 2°36.198 -999 -999 -999  
2002-07-05 06:25:59 51°9.288 2°36.197 -999 -999 -999  
2002-07-05 06:26:03 51°9.288 2°36.197 -999 -999 -999  
2002-07-05 06:26:09 51°9.287 2°36.196 -999 -999 -999  
2002-07-05 06:26:13 51°9.286 2°36.195 -999 -999 -999  
2002-07-05 06:26:19 51°9.285 2°36.195 -999 -999 -999  
2002-07-05 06:26:23 51°9.285 2°36.194 -999 -999 -999  
2002-07-05 06:26:28 51°9.284 2°36.194 -999 -999 -999  
2002-07-05 06:26:34 51°9.283 2°36.194 -999 -999 -999  
2002-07-05 06:26:39 51°9.283 2°36.193 -999 -999 -999  
2002-07-05 06:26:43 51°9.282 2°36.193 -999 -999 -999  
2002-07-05 06:26:49 51°9.282 2°36.193 -999 -999 -999  
2002-07-05 06:26:54 51°9.281 2°36.193 -999 -999 -999  
2002-07-05 06:26:58 51°9.281 2°36.193 -999 -999 -999  
2002-07-05 06:27:03 51°9.28 2°36.193 -999 -999 -999  
2002-07-05 06:27:08 51°9.28 2°36.193 -999 -999 -999  
2002-07-05 06:27:13 51°9.279 2°36.193 -999 -999 -999  
2002-07-05 06:27:18 51°9.279 2°36.194 -999 -999 -999  
2002-07-05 06:27:23 51°9.279 2°36.194 -999 -999 -999  
2002-07-05 06:27:28 51°9.279 2°36.195 -999 -999 -999  
2002-07-05 06:27:33 51°9.279 2°36.195 -999 -999 -999  
2002-07-05 06:27:39 51°9.279 2°36.197 -999 -999 -999  
2002-07-05 06:27:43 51°9.28 2°36.197 -999 -999 -999  
2002-07-05 06:27:48 51°9.28 2°36.198 -999 -999 -999  
2002-07-05 06:27:53 51°9.28 2°36.2 -999 -999 -999  
2002-07-05 06:27:58 51°9.281 2°36.201 -999 -999 -999  
2002-07-05 06:28:03 51°9.282 2°36.203 -999 -999 -999  
2002-07-05 06:28:10 51°9.283 2°36.206 -999 -999 -999  
2002-07-05 06:28:13 51°9.284 2°36.207 -999 -999 -999  
2002-07-05 06:28:19 51°9.285 2°36.21 -999 -999 -999  
2002-07-05 06:28:23 51°9.286 2°36.212 -999 -999 -999  
2002-07-05 06:28:28 51°9.287 2°36.214 -999 -999 -999  
2002-07-05 06:28:33 51°9.288 2°36.217 -999 -999 -999  
2002-07-05 06:28:39 51°9.29 2°36.221 -999 -999 -999  
2002-07-05 06:28:44 51°9.291 2°36.224 -999 -999 -999  
2002-07-05 06:28:49 51°9.293 2°36.227 -999 -999 -999  
2002-07-05 06:28:53 51°9.294 2°36.229 -999 -999 -999  
2002-07-05 06:28:59 51°9.296 2°36.233 -999 -999 -999  
2002-07-05 06:29:03 51°9.297 2°36.235 -999 -999 -999  
2002-07-05 06:29:08 51°9.298 2°36.239 -999 -999 -999  
2002-07-05 06:29:13 51°9.3 2°36.243 -999 -999 -999  
2002-07-05 06:29:19 51°9.302 2°36.247 -999 -999 -999  
2002-07-05 06:29:23 51°9.303 2°36.25 -999 -999 -999  
2002-07-05 06:29:29 51°9.305 2°36.255 -999 -999 -999  
2002-07-05 06:29:34 51°9.306 2°36.258 -999 -999 -999  
2002-07-05 06:29:38 51°9.307 2°36.261 -999 -999 -999  
2002-07-05 06:29:43 51°9.309 2°36.265 -999 -999 -999  
2002-07-05 06:29:49 51°9.31 2°36.269 -999 -999 -999  
2002-07-05 06:29:54 51°9.311 2°36.271 -999 -999 -999  
2002-07-05 06:29:58 51°9.312 2°36.274 -999 -999 -999  
2002-07-05 06:30:03 51°9.313 2°36.276 -999 -999 -999  
2002-07-05 06:30:08 51°9.314 2°36.278 -999 -999 -999  
2002-07-05 06:30:13 51°9.315 2°36.28 -999 -999 -999  
2002-07-05 06:30:18 51°9.316 2°36.281 -999 -999 -999  
2002-07-05 06:30:23 51°9.316 2°36.281 -999 -999 -999  
2002-07-05 06:30:29 51°9.317 2°36.281 -999 -999 -999  
2002-07-05 06:30:33 51°9.318 2°36.281 -999 -999 -999  
2002-07-05 06:30:39 51°9.318 2°36.28 -999 -999 -999  
2002-07-05 06:30:43 51°9.318 2°36.279 -999 -999 -999  
2002-07-05 06:30:49 51°9.319 2°36.278 -999 -999 -999  
2002-07-05 06:30:53 51°9.319 2°36.276 -999 -999 -999  
2002-07-05 06:30:59 51°9.319 2°36.273 -999 -999 -999  
2002-07-05 06:31:02 51°9.319 2°36.272 -999 -999 -999  
2002-07-05 06:31:08 51°9.319 2°36.269 -999 -999 -999  
2002-07-05 06:31:13 51°9.319 2°36.266 -999 -999 -999  
2002-07-05 06:31:19 51°9.319 2°36.264 -999 -999 -999  
2002-07-05 06:31:23 51°9.318 2°36.262 -999 -999 -999  
2002-07-05 06:31:28 51°9.318 2°36.259 -999 -999 -999  
2002-07-05 06:31:34 51°9.318 2°36.257 -999 -999 -999  
2002-07-05 06:31:38 51°9.318 2°36.255 -999 -999 -999  
2002-07-05 06:31:43 51°9.317 2°36.254 -999 -999 -999  
2002-07-05 06:31:48 51°9.317 2°36.252 -999 -999 -999  
2002-07-05 06:31:53 51°9.317 2°36.25 -999 -999 -999  
2002-07-05 06:31:58 51°9.316 2°36.249 -999 -999 -999  
2002-07-05 06:32:03 51°9.316 2°36.247 -999 -999 -999  
2002-07-05 06:32:08 51°9.316 2°36.246 -999 -999 -999  
2002-07-05 06:32:13 51°9.316 2°36.245 -999 -999 -999  
2002-07-05 06:32:19 51°9.315 2°36.243 -999 -999 -999  
2002-07-05 06:32:24 51°9.315 2°36.243 -999 -999 -999  
2002-07-05 06:32:28 51°9.315 2°36.242 -999 -999 -999  
2002-07-05 06:32:33 51°9.315 2°36.241 -999 -999 -999  
2002-07-05 06:32:38 51°9.315 2°36.241 -999 -999 -999  
2002-07-05 06:32:43 51°9.314 2°36.24 -999 -999 -999  
2002-07-05 06:32:48 51°9.314 2°36.239 -999 -999 -999  
2002-07-05 06:32:54 51°9.314 2°36.239 -999 -999 -999  
2002-07-05 06:32:58 51°9.314 2°36.239 -999 -999 -999  
2002-07-05 06:33:03 51°9.314 2°36.239 -999 -999 -999  
2002-07-05 06:33:08 51°9.314 2°36.238 -999 -999 -999  
2002-07-05 06:33:13 51°9.314 2°36.238 -999 -999 -999  
2002-07-05 06:33:19 51°9.314 2°36.238 -999 -999 -999  
2002-07-05 06:33:24 51°9.314 2°36.238 -999 -999 -999  
2002-07-05 06:33:28 51°9.314 2°36.238 -999 -999 -999  
2002-07-05 06:33:33 51°9.314 2°36.237 -999 -999 -999  
2002-07-05 06:33:38 51°9.314 2°36.237 -999 -999 -999  
2002-07-05 06:33:43 51°9.314 2°36.237 -999 -999 -999  
2002-07-05 06:33:48 51°9.314 2°36.237 -999 -999 -999  
2002-07-05 06:33:54 51°9.314 2°36.238 -999 -999 -999  
2002-07-05 06:33:58 51°9.315 2°36.239 -999 -999 -999  
2002-07-05 06:34:03 51°9.315 2°36.239 -999 -999 -999  
2002-07-05 06:34:08 51°9.315 2°36.239 -999 -999 -999  
2002-07-05 06:34:13 51°9.315 2°36.24 -999 -999 -999  
2002-07-05 06:34:19 51°9.314 2°36.24 -999 -999 -999  
2002-07-05 06:34:24 51°9.315 2°36.241 -999 -999 -999  
2002-07-05 06:34:28 51°9.315 2°36.241 -999 -999 -999  
2002-07-05 06:34:33 51°9.315 2°36.242 -999 -999 -999  
2002-07-05 06:34:38 51°9.315 2°36.243 -999 -999 -999  
2002-07-05 06:34:43 51°9.315 2°36.243 -999 -999 -999  
2002-07-05 06:34:48 51°9.315 2°36.244 -999 -999 -999  
2002-07-05 06:34:53 51°9.315 2°36.245 -999 -999 -999  
2002-07-05 06:34:58 51°9.315 2°36.246 -999 -999 -999  
2002-07-05 06:35:03 51°9.315 2°36.247 -999 -999 -999  
2002-07-05 06:35:09 51°9.316 2°36.248 -999 -999 -999  
2002-07-05 06:35:13 51°9.316 2°36.249 -999 -999 -999  
2002-07-05 06:35:18 51°9.316 2°36.25 -999 -999 -999  
2002-07-05 06:35:24 51°9.316 2°36.251 -999 -999 -999  
2002-07-05 06:35:28 51°9.317 2°36.251 -999 -999 -999  
2002-07-05 06:35:33 51°9.317 2°36.252 -999 -999 -999  
2002-07-05 06:35:38 51°9.317 2°36.253 -999 -999 -999  
2002-07-05 06:35:43 51°9.317 2°36.253 -999 -999 -999  
2002-07-05 06:35:48 51°9.316 2°36.253 -999 -999 -999  
2002-07-05 06:35:53 51°9.316 2°36.253 -999 -999 -999  
2002-07-05 06:35:58 51°9.315 2°36.253 -999 -999 -999  
2002-07-05 06:36:03 51°9.315 2°36.252 -999 -999 -999  
2002-07-05 06:36:08 51°9.314 2°36.252 -999 -999 -999  
2002-07-05 06:36:13 51°9.314 2°36.251 -999 -999 -999  
2002-07-05 06:36:19 51°9.312 2°36.25 -999 -999 -999  
2002-07-05 06:36:24 51°9.311 2°36.249 -999 -999 -999  
2002-07-05 06:36:28 51°9.31 2°36.247 -999 -999 -999  
2002-07-05 06:36:33 51°9.309 2°36.246 -999 -999 -999  
2002-07-05 06:36:38 51°9.307 2°36.245 -999 -999 -999  
2002-07-05 06:36:43 51°9.306 2°36.243 -999 -999 -999  
2002-07-05 06:36:48 51°9.305 2°36.241 -999 -999 -999  
2002-07-05 06:36:54 51°9.303 2°36.239 -999 -999 -999  
2002-07-05 06:36:58 51°9.302 2°36.237 -999 -999 -999  
2002-07-05 06:37:03 51°9.301 2°36.234 -999 -999 -999  
2002-07-05 06:37:08 51°9.3 2°36.232 -999 -999 -999  
2002-07-05 06:37:13 51°9.3 2°36.23 -999 -999 -999  
2002-07-05 06:37:19 51°9.299 2°36.227 -999 -999 -999  
2002-07-05 06:37:24 51°9.299 2°36.225 -999 -999 -999  
2002-07-05 06:37:28 51°9.299 2°36.223 -999 -999 -999  
2002-07-05 06:37:33 51°9.299 2°36.221 -999 -999 -999  
2002-07-05 06:37:38 51°9.299 2°36.219 -999 -999 -999  
2002-07-05 06:37:43 51°9.299 2°36.217 -999 -999 -999  
2002-07-05 06:37:49 51°9.299 2°36.215 -999 -999 -999  
2002-07-05 06:37:53 51°9.299 2°36.213 -999 -999 -999  
2002-07-05 06:37:59 51°9.299 2°36.212 -999 -999 -999  
2002-07-05 06:38:02 51°9.299 2°36.211 -999 -999 -999  
2002-07-05 06:38:08 51°9.3 2°36.209 -999 -999 -999  
2002-07-05 06:38:13 51°9.3 2°36.207 -999 -999 -999  
2002-07-05 06:38:19 51°9.301 2°36.205 -999 -999 -999  
2002-07-05 06:38:23 51°9.301 2°36.204 -999 -999 -999  
2002-07-05 06:38:29 51°9.302 2°36.203 -999 -999 -999  
2002-07-05 06:38:34 51°9.302 2°36.201 -999 -999 -999  
2002-07-05 06:38:38 51°9.303 2°36.2 -999 -999 -999  
2002-07-05 06:38:43 51°9.303 2°36.199 -999 -999 -999  
2002-07-05 06:38:48 51°9.304 2°36.198 -999 -999 -999  
2002-07-05 06:38:53 51°9.305 2°36.197 -999 -999 -999  
2002-07-05 06:38:59 51°9.306 2°36.196 -999 -999 -999  
2002-07-05 06:39:03 51°9.306 2°36.195 -999 -999 -999  
2002-07-05 06:39:08 51°9.307 2°36.194 -999 -999 -999  
2002-07-05 06:39:13 51°9.308 2°36.194 -999 -999 -999  
2002-07-05 06:39:18 51°9.309 2°36.193 -999 -999 -999  
2002-07-05 06:39:23 51°9.31 2°36.192 -999 -999 -999  
2002-07-05 06:39:28 51°9.31 2°36.192 -999 -999 -999  
2002-07-05 06:39:33 51°9.311 2°36.191 -999 -999 -999  
2002-07-05 06:39:39 51°9.312 2°36.191 -999 -999 -999  
2002-07-05 06:39:43 51°9.313 2°36.19 -999 -999 -999  
2002-07-05 06:39:48 51°9.314 2°36.19 -999 -999 -999  
2002-07-05 06:39:54 51°9.315 2°36.189 -999 -999 -999  
2002-07-05 06:39:59 51°9.316 2°36.189 -999 -999 -999  
2002-07-05 06:40:03 51°9.317 2°36.189 -999 -999 -999  
2002-07-05 06:40:09 51°9.318 2°36.188 -999 -999 -999  
2002-07-05 06:40:13 51°9.318 2°36.188 -999 -999 -999  
2002-07-05 06:40:19 51°9.32 2°36.188 -999 -999 -999  
2002-07-05 06:40:23 51°9.32 2°36.188 -999 -999 -999  
2002-07-05 06:40:28 51°9.321 2°36.188 -999 -999 -999  
2002-07-05 06:40:33 51°9.322 2°36.188 -999 -999 -999  
2002-07-05 06:40:39 51°9.323 2°36.189 -999 -999 -999  
2002-07-05 06:40:43 51°9.324 2°36.189 -999 -999 -999  
2002-07-05 06:40:48 51°9.325 2°36.19 -999 -999 -999  
2002-07-05 06:40:53 51°9.326 2°36.192 -999 -999 -999  
2002-07-05 06:40:59 51°9.327 2°36.193 -999 -999 -999  
2002-07-05 06:41:03 51°9.327 2°36.194 -999 -999 -999  
2002-07-05 06:41:08 51°9.328 2°36.196 -999 -999 -999  
2002-07-05 06:41:13 51°9.33 2°36.197 -999 -999 -999  
2002-07-05 06:41:18 51°9.33 2°36.198 -999 -999 -999  
2002-07-05 06:41:23 51°9.331 2°36.2 -999 -999 -999  
2002-07-05 06:41:28 51°9.332 2°36.201 -999 -999 -999  
2002-07-05 06:41:33 51°9.333 2°36.202 -999 -999 -999  
2002-07-05 06:41:39 51°9.334 2°36.204 -999 -999 -999  
2002-07-05 06:41:43 51°9.335 2°36.205 -999 -999 -999  
2002-07-05 06:41:49 51°9.336 2°36.207 -999 -999 -999  
2002-07-05 06:41:53 51°9.337 2°36.207 -999 -999 -999  
2002-07-05 06:41:59 51°9.338 2°36.208 -999 -999 -999  
2002-07-05 06:42:03 51°9.339 2°36.208 -999 -999 -999  
2002-07-05 06:42:08 51°9.339 2°36.208 -999 -999 -999  
2002-07-05 06:42:14 51°9.34 2°36.208 -999 -999 -999  
2002-07-05 06:42:19 51°9.34 2°36.208 -999 -999 -999  
2002-07-05 06:42:23 51°9.34 2°36.208 -999 -999 -999  
2002-07-05 06:42:28 51°9.34 2°36.208 -999 -999 -999  
2002-07-05 06:42:34 51°9.34 2°36.207 -999 -999 -999  
2002-07-05 06:42:39 51°9.34 2°36.207 -999 -999 -999  
2002-07-05 06:42:43 51°9.34 2°36.207 -999 -999 -999  
2002-07-05 06:42:48 51°9.339 2°36.207 -999 -999 -999  
2002-07-05 06:42:54 51°9.339 2°36.207 -999 -999 -999  
2002-07-05 06:42:59 51°9.338 2°36.207 -999 -999 -999  
2002-07-05 06:43:03 51°9.337 2°36.207 -999 -999 -999  
2002-07-05 06:43:08 51°9.337 2°36.207 -999 -999 -999  
2002-07-05 06:43:14 51°9.336 2°36.208 -999 -999 -999  
2002-07-05 06:43:19 51°9.335 2°36.208 -999 -999 -999  
2002-07-05 06:43:23 51°9.334 2°36.209 -999 -999 -999  
2002-07-05 06:43:29 51°9.332 2°36.21 -999 -999 -999  
2002-07-05 06:43:33 51°9.331 2°36.21 -999 -999 -999  
2002-07-05 06:43:38 51°9.33 2°36.211 -999 -999 -999  
2002-07-05 06:43:44 51°9.328 2°36.212 -999 -999 -999  
2002-07-05 06:43:50 51°9.325 2°36.213 -999 -999 -999  
2002-07-05 06:43:54 51°9.324 2°36.213 -999 -999 -999  
2002-07-05 06:44:00 51°9.322 2°36.215 -999 -999 -999  
2002-07-05 06:44:03 51°9.321 2°36.215 -999 -999 -999  
2002-07-05 06:44:09 51°9.318 2°36.216 -999 -999 -999  
2002-07-05 06:44:13 51°9.317 2°36.217 -999 -999 -999  
2002-07-05 06:44:19 51°9.314 2°36.219 -999 -999 -999  
2002-07-05 06:44:23 51°9.313 2°36.22 -999 -999 -999  
2002-07-05 06:44:29 51°9.31 2°36.222 -999 -999 -999  
2002-07-05 06:44:33 51°9.309 2°36.223 -999 -999 -999  
2002-07-05 06:44:39 51°9.306 2°36.225 -999 -999 -999  
2002-07-05 06:44:43 51°9.305 2°36.227 -999 -999 -999  
2002-07-05 06:44:48 51°9.303 2°36.229 -999 -999 -999  
2002-07-05 06:44:53 51°9.301 2°36.231 -999 -999 -999  
2002-07-05 06:44:59 51°9.299 2°36.234 -999 -999 -999  
2002-07-05 06:45:03 51°9.297 2°36.237 -999 -999 -999  
2002-07-05 06:45:09 51°9.295 2°36.241 -999 -999 -999  
2002-07-05 06:45:14 51°9.293 2°36.245 -999 -999 -999  
2002-07-05 06:45:18 51°9.292 2°36.247 -999 -999 -999  
2002-07-05 06:45:23 51°9.291 2°36.251 -999 -999 -999  
2002-07-05 06:45:29 51°9.29 2°36.255 -999 -999 -999  
2002-07-05 06:45:34 51°9.289 2°36.258 -999 -999 -999  
2002-07-05 06:45:39 51°9.289 2°36.262 -999 -999 -999  
2002-07-05 06:45:43 51°9.289 2°36.264 -999 -999 -999  
2002-07-05 06:45:49 51°9.29 2°36.267 -999 -999 -999  
2002-07-05 06:45:53 51°9.291 2°36.269 -999 -999 -999  
2002-07-05 06:45:59 51°9.293 2°36.272 -999 -999 -999